| time (UTC) | temp F | wind direction | speed MPH | gust MPH | rain 1hr in | rain 24hr in | rain mn in | humidity % | barometer mb |
| 20260508101101 | 51 | 214 | 0.0 | 0.0 | 0.00 | 0.00 | 0.00 | 82 | 1010.2 |
| 20260508100559 | 51 | 219 | 1.0 | 1.0 | 0.00 | 0.00 | 0.00 | 82 | 1010.3 |
| 20260508100055 | 51 | 213 | 0.0 | 0.0 | 0.00 | 0.00 | 0.00 | 82 | 1010.5 |
| 20260508095552 | 51 | 216 | 0.0 | 1.0 | 0.00 | 0.00 | 0.00 | 82 | 1010.3 |
| 20260508095049 | 51 | 215 | 0.0 | 1.0 | 0.00 | 0.00 | 0.00 | 82 | 1010.4 |
| 20260508094547 | 51 | 213 | 0.0 | 0.0 | 0.00 | 0.00 | 0.00 | 83 | 1010.4 |
| 20260508094043 | 51 | 214 | 0.0 | 0.0 | 0.00 | 0.00 | 0.00 | 82 | 1010.3 |
| 20260508093541 | 51 | 214 | 0.0 | 0.0 | 0.00 | 0.00 | 0.00 | 82 | 1010.3 |
| 20260508093038 | 52 | 214 | 0.0 | 0.0 | 0.00 | 0.00 | 0.00 | 81 | 1010.4 |
| 20260508092535 | 52 | 213 | 0.0 | 0.0 | 0.00 | 0.00 | 0.00 | 81 | 1010.5 |
| 20260508092034 | 52 | 211 | 0.0 | 0.0 | 0.00 | 0.00 | 0.00 | 81 | 1010.4 |
| 20260508091531 | 52 | 208 | 0.0 | 0.0 | 0.00 | 0.00 | 0.00 | 81 | 1010.5 |
| 20260508091027 | 52 | 211 | 0.0 | 0.0 | 0.00 | 0.00 | 0.00 | 80 | 1010.4 |
| 20260508090526 | 52 | 215 | 0.0 | 1.0 | 0.00 | 0.00 | 0.00 | 80 | 1010.5 |
| 20260508090022 | 52 | 211 | 0.0 | 0.0 | 0.00 | 0.00 | 0.00 | 81 | 1010.7 |
| 20260508085519 | 52 | 212 | 0.0 | 0.0 | 0.00 | 0.00 | 0.00 | 81 | 1010.5 |
| 20260508085016 | 52 | 212 | 0.0 | 0.0 | 0.00 | 0.00 | 0.00 | 81 | 1010.5 |
| 20260508084513 | 52 | 213 | 0.0 | 0.0 | 0.00 | 0.00 | 0.00 | 81 | 1010.4 |
| 20260508084010 | 53 | 212 | 0.0 | 0.0 | 0.00 | 0.00 | 0.00 | 81 | 1010.9 |
| 20260508083507 | 53 | 216 | 1.0 | 1.0 | 0.00 | 0.00 | 0.00 | 81 | 1010.7 |
| 20260508083003 | 53 | 216 | 0.0 | 0.0 | 0.00 | 0.00 | 0.00 | 82 | 1010.8 |
| 20260508082459 | 53 | 214 | 0.0 | 0.0 | 0.00 | 0.00 | 0.00 | 81 | 1010.9 |
| 20260508081957 | 53 | 219 | 0.0 | 0.0 | 0.00 | 0.00 | 0.00 | 82 | 1011.0 |
| 20260508081454 | 53 | 214 | 0.0 | 0.0 | 0.00 | 0.00 | 0.00 | 81 | 1010.9 |
| 20260508080950 | 53 | 217 | 0.0 | 0.0 | 0.00 | 0.00 | 0.00 | 81 | 1011.0 |
| 20260508080448 | 53 | 219 | 0.0 | 0.0 | 0.00 | 0.00 | 0.00 | 82 | 1010.9 |
| 20260508075945 | 53 | 214 | 0.0 | 0.0 | 0.00 | 0.00 | 0.00 | 81 | 1011.0 |
| 20260508075442 | 53 | 211 | 0.0 | 0.0 | 0.00 | 0.00 | 0.00 | 83 | 1011.2 |
| 20260508074939 | 53 | 213 | 0.0 | 0.0 | 0.00 | 0.00 | 0.00 | 83 | 1011.2 |
| 20260508074437 | 53 | 216 | 0.0 | 0.0 | 0.00 | 0.00 | 0.00 | 84 | 1011.2 |
| 20260508073934 | 52 | 213 | 0.0 | 0.0 | 0.00 | 0.00 | 0.00 | 84 | 1011.3 |
| 20260508073431 | 52 | 211 | 0.0 | 0.0 | 0.00 | 0.00 | 0.00 | 83 | 1011.4 |
| 20260508072928 | 52 | 215 | 0.0 | 0.0 | 0.00 | 0.00 | 0.00 | 85 | 1011.5 |
| 20260508072424 | 52 | 215 | 0.0 | 0.0 | 0.00 | 0.00 | 0.00 | 85 | 1011.4 |
| 20260508071922 | 51 | 215 | 0.0 | 0.0 | 0.00 | 0.00 | 0.00 | 85 | 1011.5 |
| 20260508071419 | 51 | 219 | 0.0 | 0.0 | 0.00 | 0.00 | 0.00 | 86 | 1011.4 |
| 20260508070917 | 51 | 219 | 0.0 | 0.0 | 0.00 | 0.00 | 0.00 | 87 | 1011.6 |
| 20260508070415 | 51 | 218 | 0.0 | 0.0 | 0.00 | 0.00 | 0.00 | 88 | 1011.7 |
| 20260508065912 | 51 | 218 | 0.0 | 0.0 | 0.00 | 0.00 | 0.00 | 88 | 1011.6 |
| 20260508065410 | 51 | 213 | 0.0 | 0.0 | 0.00 | 0.00 | 0.00 | 88 | 1011.6 |
| 20260508064908 | 50 | 219 | 1.0 | 1.0 | 0.00 | 0.00 | 0.00 | 89 | 1011.5 |
| 20260508064405 | 50 | 216 | 0.0 | 0.0 | 0.00 | 0.00 | 0.00 | 90 | 1011.7 |
| 20260508063903 | 50 | 213 | 0.0 | 0.0 | 0.00 | 0.00 | 0.00 | 90 | 1011.9 |
| 20260508063401 | 51 | 213 | 0.0 | 0.0 | 0.00 | 0.00 | 0.00 | 89 | 1011.9 |
| 20260508062857 | 51 | 213 | 0.0 | 0.0 | 0.00 | 0.00 | 0.00 | 87 | 1011.9 |
| 20260508062355 | 51 | 212 | 0.0 | 1.0 | 0.00 | 0.00 | 0.00 | 86 | 1011.7 |
| 20260508061852 | 51 | 210 | 0.0 | 0.0 | 0.00 | 0.00 | 0.00 | 86 | 1011.8 |
| 20260508061349 | 51 | 217 | 0.0 | 0.0 | 0.00 | 0.00 | 0.00 | 87 | 1011.8 |
| 20260508060845 | 51 | 215 | 0.0 | 0.0 | 0.00 | 0.00 | 0.00 | 86 | 1012.2 |
| 20260508060343 | 51 | 222 | 0.0 | 0.0 | 0.00 | 0.00 | 0.00 | 86 | 1012.0 |
| 20260508055838 | 51 | 222 | 0.0 | 0.0 | 0.00 | 0.00 | 0.00 | 87 | 1011.9 |
| 20260508055336 | 51 | 220 | 0.0 | 0.0 | 0.00 | 0.00 | 0.00 | 87 | 1012.1 |
| 20260508054832 | 51 | 213 | 0.0 | 0.0 | 0.00 | 0.00 | 0.00 | 88 | 1012.1 |
| 20260508054330 | 51 | 211 | 0.0 | 0.0 | 0.00 | 0.00 | 0.00 | 88 | 1012.2 |
| 20260508053826 | 50 | 212 | 0.0 | 1.0 | 0.00 | 0.00 | 0.00 | 89 | 1012.3 |
| 20260508053324 | 49 | 215 | 0.0 | 0.0 | 0.00 | 0.00 | 0.00 | 92 | 1012.3 |
| 20260508052821 | 48 | 210 | 0.0 | 0.0 | 0.00 | 0.00 | 0.00 | 95 | 1012.3 |
| 20260508052318 | 48 | 213 | 0.0 | 0.0 | 0.00 | 0.00 | 0.00 | 97 | 1012.3 |
| 20260508051815 | 48 | 211 | 0.0 | 0.0 | 0.00 | 0.00 | 0.00 | 98 | 1012.3 |
| 20260508051310 | 48 | 211 | 0.0 | 0.0 | 0.00 | 0.00 | 0.00 | 99 | 1012.5 |
| 20260508050807 | 48 | 211 | 0.0 | 0.0 | 0.00 | 0.00 | 0.00 | 98 | 1012.6 |
| 20260508050304 | 48 | 212 | 0.0 | 0.0 | 0.00 | 0.00 | 0.00 | 98 | 1012.8 |
| 20260508045759 | 48 | 212 | 0.0 | 0.0 | 0.00 | 0.12 | 0.12 | 98 | 1012.7 |
| 20260508045257 | 48 | 217 | 0.0 | 0.0 | 0.00 | 0.12 | 0.12 | 97 | 1012.5 |
| 20260508044755 | 48 | 209 | 0.0 | 0.0 | 0.00 | 0.12 | 0.12 | 97 | 1012.4 |
| 20260508044251 | 48 | 213 | 0.0 | 0.0 | 0.00 | 0.12 | 0.12 | 97 | 1012.6 |
| 20260508043747 | 48 | 204 | 0.0 | 0.0 | 0.00 | 0.12 | 0.12 | 97 | 1012.6 |
| 20260508043245 | 48 | 204 | 0.0 | 0.0 | 0.00 | 0.12 | 0.12 | 97 | 1012.7 |
| 20260508042741 | 48 | 204 | 0.0 | 0.0 | 0.00 | 0.12 | 0.12 | 97 | 1012.7 |
| 20260508042239 | 49 | 204 | 0.0 | 0.0 | 0.00 | 0.12 | 0.12 | 96 | 1012.3 |
| 20260508041735 | 49 | 204 | 0.0 | 0.0 | 0.00 | 0.12 | 0.12 | 96 | 1012.6 |
| 20260508041232 | 49 | 204 | 0.0 | 0.0 | 0.00 | 0.12 | 0.12 | 95 | 1012.6 |
| 20260508040729 | 49 | 204 | 0.0 | 0.0 | 0.00 | 0.12 | 0.12 | 95 | 1012.6 |
| 20260508040226 | 50 | 206 | 0.0 | 0.0 | 0.00 | 0.12 | 0.12 | 94 | 1012.6 |
| 20260508035723 | 50 | 206 | 0.0 | 0.0 | 0.00 | 0.12 | 0.12 | 94 | 1012.6 |
| 20260508035221 | 50 | 191 | 0.0 | 0.0 | 0.00 | 0.12 | 0.12 | 94 | 1012.6 |
| 20260508034717 | 50 | 209 | 1.0 | 1.0 | 0.00 | 0.12 | 0.12 | 93 | 1012.7 |
| 20260508034215 | 50 | 209 | 0.0 | 0.0 | 0.00 | 0.12 | 0.12 | 93 | 1012.7 |
| 20260508033711 | 50 | 210 | 0.0 | 0.0 | 0.00 | 0.12 | 0.12 | 94 | 1012.8 |
| 20260508033210 | 50 | 215 | 0.0 | 0.0 | 0.00 | 0.12 | 0.12 | 95 | 1012.7 |
| 20260508032707 | 50 | 251 | 2.0 | 2.0 | 0.00 | 0.12 | 0.12 | 94 | 1012.7 |
| 20260508032204 | 51 | 218 | 0.0 | 1.0 | 0.00 | 0.12 | 0.12 | 91 | 1012.6 |
| 20260508031701 | 51 | 209 | 0.0 | 1.0 | 0.00 | 0.12 | 0.12 | 89 | 1012.4 |
| 20260508031157 | 52 | 210 | 0.0 | 0.0 | 0.00 | 0.12 | 0.12 | 88 | 1012.1 |
| 20260508030653 | 52 | 210 | 0.0 | 0.0 | 0.00 | 0.12 | 0.12 | 88 | 1012.2 |
| 20260508030151 | 52 | 215 | 1.0 | 1.0 | 0.00 | 0.12 | 0.12 | 87 | 1012.3 |
| 20260508025647 | 52 | 208 | 0.0 | 0.0 | 0.00 | 0.12 | 0.12 | 88 | 1012.3 |
| 20260508025144 | 52 | 222 | 0.0 | 0.0 | 0.00 | 0.12 | 0.12 | 88 | 1012.1 |
| 20260508024640 | 52 | 210 | 0.0 | 0.0 | 0.00 | 0.12 | 0.12 | 88 | 1012.2 |
| 20260508024138 | 52 | 223 | 0.0 | 0.0 | 0.00 | 0.12 | 0.12 | 88 | 1012.3 |
| 20260508023633 | 52 | 214 | 0.0 | 1.0 | 0.00 | 0.12 | 0.12 | 89 | 1012.0 |
| 20260508023131 | 52 | 207 | 0.0 | 0.0 | 0.00 | 0.12 | 0.12 | 90 | 1012.0 |
| 20260508022627 | 51 | 211 | 1.0 | 1.0 | 0.00 | 0.12 | 0.12 | 91 | 1012.2 |
| 20260508022124 | 51 | 211 | 0.0 | 0.0 | 0.00 | 0.12 | 0.12 | 93 | 1012.2 |
| 20260508021620 | 51 | 215 | 0.0 | 1.0 | 0.00 | 0.12 | 0.12 | 94 | 1012.2 |
| 20260508021116 | 51 | 209 | 0.0 | 0.0 | 0.00 | 0.12 | 0.12 | 96 | 1012.2 |
| 20260508020614 | 51 | 218 | 0.0 | 0.0 | 0.00 | 0.12 | 0.12 | 96 | 1012.3 |
| 20260508020111 | 51 | 200 | 0.0 | 0.0 | 0.00 | 0.12 | 0.12 | 97 | 1012.2 |
| 20260508015609 | 51 | 223 | 1.0 | 1.0 | 0.00 | 0.12 | 0.12 | 96 | 1012.1 |
| 20260508015105 | 51 | 216 | 0.0 | 0.0 | 0.00 | 0.12 | 0.12 | 97 | 1011.8 |
| 20260508014601 | 51 | 217 | 0.0 | 0.0 | 0.00 | 0.12 | 0.12 | 97 | 1011.8 |
| 20260508014058 | 51 | 216 | 0.0 | 0.0 | 0.00 | 0.12 | 0.12 | 96 | 1011.7 |
| 20260508013554 | 52 | 216 | 0.0 | 0.0 | 0.00 | 0.12 | 0.12 | 96 | 1011.9 |
| 20260508013051 | 51 | 216 | 0.0 | 0.0 | 0.00 | 0.12 | 0.12 | 95 | 1011.8 |
| 20260508012548 | 51 | 216 | 0.0 | 0.0 | 0.00 | 0.12 | 0.12 | 95 | 1011.7 |
| 20260508012046 | 52 | 216 | 0.0 | 0.0 | 0.00 | 0.12 | 0.12 | 94 | 1011.7 |
| 20260508011544 | 52 | 214 | 0.0 | 0.0 | 0.00 | 0.12 | 0.12 | 93 | 1011.6 |
| 20260508011041 | 53 | 215 | 0.0 | 0.0 | 0.00 | 0.12 | 0.12 | 92 | 1011.6 |
| 20260508010538 | 53 | 213 | 0.0 | 0.0 | 0.00 | 0.12 | 0.12 | 90 | 1011.7 |
| 20260508010035 | 53 | 212 | 0.0 | 0.0 | 0.00 | 0.12 | 0.12 | 89 | 1011.5 |
| 20260508005532 | 54 | 212 | 0.0 | 0.0 | 0.00 | 0.12 | 0.12 | 89 | 1011.6 |
| 20260508005028 | 54 | 212 | 0.0 | 0.0 | 0.00 | 0.12 | 0.12 | 89 | 1011.5 |
| 20260508004524 | 55 | 212 | 0.0 | 0.0 | 0.00 | 0.12 | 0.12 | 89 | 1011.4 |
| 20260508004021 | 55 | 213 | 1.0 | 1.0 | 0.00 | 0.12 | 0.12 | 89 | 1011.4 |
| 20260508003518 | 55 | 213 | 0.0 | 0.0 | 0.00 | 0.12 | 0.12 | 86 | 1011.4 |
| 20260508003016 | 55 | 176 | 1.0 | 1.0 | 0.00 | 0.12 | 0.12 | 91 | 1011.5 |
| 20260508002511 | 55 | 239 | 0.0 | 0.0 | 0.00 | 0.12 | 0.12 | 91 | 1011.7 |
| 20260508002009 | 55 | 239 | 0.0 | 0.0 | 0.00 | 0.12 | 0.12 | 89 | 1011.8 |
| 20260508001504 | 55 | 229 | 0.0 | 0.0 | 0.00 | 0.12 | 0.12 | 88 | 1011.7 |
| 20260508001001 | 55 | 225 | 0.0 | 0.0 | 0.00 | 0.12 | 0.12 | 87 | 1011.5 |
| 20260508000457 | 56 | 218 | 1.0 | 1.0 | 0.00 | 0.12 | 0.12 | 86 | 1011.4 |
| 20260507235954 | 56 | 217 | 1.0 | 1.0 | 0.05 | 0.12 | 0.12 | 80 | 1011.3 |
| 20260507235450 | 57 | 85 | 3.0 | 3.0 | 0.05 | 0.12 | 0.12 | 83 | 1011.7 |
| 20260507234948 | 57 | 208 | 1.0 | 1.0 | 0.00 | 0.11 | 0.11 | 81 | 1012.4 |
| 20260507234445 | 58 | 223 | 2.0 | 2.0 | 0.00 | 0.11 | 0.11 | 87 | 1012.4 |
| 20260507233941 | 59 | 230 | 0.0 | 0.0 | 0.00 | 0.11 | 0.11 | 84 | 1012.4 |
| 20260507233438 | 59 | 216 | 0.0 | 0.0 | 0.00 | 0.11 | 0.11 | 84 | 1012.0 |
| 20260507232937 | 59 | 215 | 0.0 | 0.0 | 0.00 | 0.11 | 0.11 | 83 | 1011.8 |
| 20260507232433 | 59 | 215 | 0.0 | 0.0 | 0.00 | 0.11 | 0.11 | 80 | 1011.6 |
| 20260507231930 | 59 | 211 | 0.0 | 0.0 | 0.00 | 0.11 | 0.11 | 80 | 1011.6 |
| 20260507231426 | 59 | 201 | 1.0 | 1.0 | 0.00 | 0.11 | 0.11 | 80 | 1011.9 |
| 20260507230923 | 60 | 218 | 0.0 | 0.0 | 0.00 | 0.11 | 0.11 | 80 | 1011.9 |
| 20260507230421 | 60 | 218 | 0.0 | 0.0 | 0.00 | 0.11 | 0.11 | 81 | 1012.3 |
| 20260507225921 | 60 | 235 | 2.0 | 2.0 | 0.00 | 0.11 | 0.11 | 74 | 1012.0 |
| 20260507225417 | 60 | 216 | 0.0 | 0.0 | 0.00 | 0.11 | 0.11 | 71 | 1011.9 |
| 20260507224913 | 61 | 216 | 0.0 | 1.0 | 0.00 | 0.11 | 0.11 | 70 | 1011.8 |
| 20260507224409 | 60 | 209 | 1.0 | 1.0 | 0.00 | 0.11 | 0.11 | 75 | 1012.0 |
| 20260507223906 | 60 | 212 | 0.0 | 0.0 | 0.00 | 0.11 | 0.11 | 70 | 1011.9 |
| 20260507223402 | 60 | 208 | 0.0 | 0.0 | 0.00 | 0.11 | 0.11 | 69 | 1011.8 |
| 20260507222859 | 61 | 202 | 1.0 | 1.0 | 0.07 | 0.11 | 0.11 | 69 | 1011.8 |
| 20260507222355 | 62 | 210 | 0.0 | 0.0 | 0.07 | 0.11 | 0.11 | 69 | 1012.3 |
| 20260507221853 | 61 | 215 | 0.0 | 0.0 | 0.00 | 0.10 | 0.10 | 63 | 1012.3 |
| 20260507221349 | 61 | 213 | 0.0 | 0.0 | 0.00 | 0.10 | 0.10 | 64 | 1012.3 |
| 20260507220845 | 61 | 214 | 0.0 | 1.0 | 0.00 | 0.10 | 0.10 | 64 | 1012.0 |
| 20260507220343 | 61 | 213 | 0.0 | 0.0 | 0.00 | 0.10 | 0.10 | 64 | 1012.1 |
| 20260507215839 | 62 | 192 | 2.0 | 2.0 | 0.00 | 0.10 | 0.10 | 61 | 1012.1 |
| 20260507215336 | 62 | 224 | 1.0 | 1.0 | 0.00 | 0.10 | 0.10 | 62 | 1012.1 |
| 20260507214834 | 61 | 216 | 0.0 | 0.0 | 0.00 | 0.10 | 0.10 | 65 | 1012.1 |
| 20260507214331 | 61 | 216 | 1.0 | 1.0 | 0.00 | 0.10 | 0.10 | 64 | 1012.1 |
| 20260507213826 | 60 | 212 | 1.0 | 1.0 | 0.00 | 0.10 | 0.10 | 65 | 1012.0 |
| 20260507213323 | 59 | 206 | 0.0 | 0.0 | 0.00 | 0.10 | 0.10 | 68 | 1012.0 |
| 20260507212820 | 59 | 214 | 0.0 | 0.0 | 0.00 | 0.10 | 0.10 | 70 | 1011.7 |
| 20260507212316 | 58 | 214 | 0.0 | 0.0 | 0.00 | 0.10 | 0.10 | 71 | 1012.2 |
| 20260507211812 | 58 | 231 | 2.0 | 2.0 | 0.00 | 0.10 | 0.10 | 66 | 1012.4 |
| 20260507211309 | 59 | 214 | 1.0 | 2.0 | 0.00 | 0.10 | 0.10 | 65 | 1012.5 |
| 20260507210806 | 60 | 252 | 5.0 | 9.0 | 0.00 | 0.10 | 0.10 | 73 | 1012.3 |
| 20260507210303 | 60 | 222 | 0.0 | 0.0 | 0.00 | 0.10 | 0.10 | 72 | 1012.1 |
| 20260507205759 | 61 | 214 | 0.0 | 0.0 | 0.00 | 0.10 | 0.10 | 68 | 1012.0 |
| 20260507205257 | 62 | 225 | 0.0 | 0.0 | 0.00 | 0.10 | 0.10 | 62 | 1011.8 |
| 20260507204752 | 61 | 228 | 0.0 | 0.0 | 0.00 | 0.10 | 0.10 | 65 | 1011.8 |
| 20260507204250 | 62 | 226 | 1.0 | 1.0 | 0.00 | 0.10 | 0.10 | 63 | 1012.1 |
| 20260507203748 | 62 | 225 | 1.0 | 1.0 | 0.00 | 0.10 | 0.10 | 64 | 1012.1 |
| 20260507203245 | 62 | 217 | 0.0 | 0.0 | 0.00 | 0.10 | 0.10 | 62 | 1012.0 |
| 20260507202741 | 61 | 230 | 0.0 | 1.0 | 0.00 | 0.10 | 0.10 | 69 | 1012.3 |
| 20260507202237 | 59 | 236 | 0.0 | 0.0 | 0.00 | 0.10 | 0.10 | 76 | 1012.2 |
| 20260507201732 | 59 | 210 | 1.0 | 2.0 | 0.00 | 0.10 | 0.10 | 72 | 1012.5 |
| 20260507201230 | 56 | 215 | 0.0 | 0.0 | 0.00 | 0.10 | 0.10 | 80 | 1012.7 |
| 20260507200726 | 56 | 129 | 1.0 | 2.0 | 0.00 | 0.10 | 0.10 | 87 | 1012.6 |
| 20260507200222 | 54 | 178 | 0.0 | 1.0 | 0.12 | 0.10 | 0.10 | 91 | 1012.6 |
| 20260507195718 | 53 | 222 | 1.0 | 1.0 | 0.12 | 0.10 | 0.10 | 89 | 1013.1 |
| 20260507195216 | 55 | 223 | 1.0 | 1.0 | 0.00 | 0.08 | 0.08 | 82 | 1013.5 |
| 20260507194713 | 54 | 225 | 3.0 | 3.0 | 0.00 | 0.08 | 0.08 | 80 | 1013.0 |
| 20260507194209 | 55 | 253 | 1.0 | 2.0 | 0.17 | 0.08 | 0.08 | 88 | 1013.0 |
| 20260507193706 | 54 | 44 | 3.0 | 6.0 | 0.28 | 0.08 | 0.08 | 76 | 1013.3 |
| 20260507193203 | 55 | 145 | 4.0 | 6.0 | 0.42 | 0.07 | 0.07 | 70 | 1014.3 |
| 20260507192658 | 57 | 237 | 2.0 | 3.0 | 0.19 | 0.03 | 0.03 | 72 | 1013.8 |
| 20260507192156 | 62 | 228 | 5.0 | 7.0 | 0.00 | 0.00 | 0.00 | 50 | 1013.0 |
| 20260507191651 | 63 | 220 | 1.0 | 2.0 | 0.00 | 0.00 | 0.00 | 49 | 1012.8 |
| 20260507191148 | 63 | 225 | 1.0 | 1.0 | 0.00 | 0.00 | 0.00 | 51 | 1013.1 |
| 20260507190645 | 64 | 225 | 2.0 | 2.0 | 0.00 | 0.00 | 0.00 | 46 | 1013.0 |
| 20260507190144 | 64 | 114 | 1.0 | 3.0 | 0.00 | 0.00 | 0.00 | 46 | 1013.0 |
| 20260507185642 | 65 | 225 | 2.0 | 2.0 | 0.00 | 0.00 | 0.00 | 45 | 1012.7 |
| 20260507185138 | 65 | 239 | 4.0 | 5.0 | 0.00 | 0.00 | 0.00 | 42 | 1012.8 |
| 20260507184636 | 64 | 230 | 1.0 | 2.0 | 0.00 | 0.00 | 0.00 | 46 | 1012.8 |
| 20260507184134 | 64 | 221 | 2.0 | 2.0 | 0.00 | 0.00 | 0.00 | 46 | 1012.9 |
| 20260507183630 | 66 | 234 | 2.0 | 2.0 | 0.00 | 0.00 | 0.00 | 45 | 1012.8 |
| 20260507183127 | 66 | 221 | 2.0 | 3.0 | 0.00 | 0.00 | 0.00 | 48 | 1013.0 |
| 20260507182624 | 65 | 265 | 4.0 | 5.0 | 0.00 | 0.00 | 0.00 | 46 | 1012.9 |
| 20260507182120 | 65 | 243 | 4.0 | 5.0 | 0.00 | 0.00 | 0.00 | 48 | 1013.0 |
| 20260507181616 | 65 | 190 | 2.0 | 2.0 | 0.00 | 0.00 | 0.00 | 45 | 1013.2 |
| 20260507181112 | 66 | 228 | 5.0 | 8.0 | 0.00 | 0.00 | 0.00 | 44 | 1013.0 |
| 20260507180609 | 66 | 253 | 5.0 | 7.0 | 0.00 | 0.00 | 0.00 | 46 | 1013.1 |
| 20260507180107 | 65 | 197 | 1.0 | 2.0 | 0.00 | 0.00 | 0.00 | 47 | 1013.2 |
| 20260507175602 | 67 | 251 | 5.0 | 6.0 | 0.00 | 0.00 | 0.00 | 45 | 1013.2 |
| 20260507175100 | 64 | 212 | 2.0 | 2.0 | 0.00 | 0.00 | 0.00 | 47 | 1013.4 |
| 20260507174557 | 63 | 244 | 3.0 | 3.0 | 0.00 | 0.00 | 0.00 | 50 | 1013.6 |
| 20260507174055 | 63 | 233 | 4.0 | 5.0 | 0.00 | 0.00 | 0.00 | 46 | 1013.7 |
| 20260507173551 | 63 | 233 | 3.0 | 3.0 | 0.00 | 0.00 | 0.00 | 47 | 1013.9 |
| 20260507173048 | 65 | 235 | 4.0 | 6.0 | 0.00 | 0.00 | 0.00 | 46 | 1013.9 |
| 20260507172544 | 63 | 206 | 3.0 | 5.0 | 0.00 | 0.00 | 0.00 | 48 | 1014.1 |
| 20260507172042 | 64 | 237 | 3.0 | 6.0 | 0.00 | 0.00 | 0.00 | 47 | 1014.0 |
| 20260507171537 | 65 | 220 | 3.0 | 5.0 | 0.00 | 0.00 | 0.00 | 49 | 1014.1 |
| 20260507171034 | 65 | 184 | 2.0 | 3.0 | 0.00 | 0.00 | 0.00 | 46 | 1014.1 |
| 20260507170530 | 65 | 269 | 4.0 | 8.0 | 0.00 | 0.00 | 0.00 | 47 | 1014.1 |
| 20260507170028 | 65 | 229 | 3.0 | 6.0 | 0.00 | 0.00 | 0.00 | 45 | 1014.4 |
| 20260507165523 | 64 | 256 | 5.0 | 7.0 | 0.00 | 0.00 | 0.00 | 48 | 1014.5 |
| 20260507165020 | 64 | 118 | 4.0 | 6.0 | 0.00 | 0.00 | 0.00 | 45 | 1014.3 |
| 20260507164517 | 65 | 225 | 5.0 | 5.0 | 0.00 | 0.00 | 0.00 | 45 | 1014.4 |
| 20260507164014 | 64 | 219 | 3.0 | 3.0 | 0.00 | 0.00 | 0.00 | 46 | 1014.5 |
| 20260507163511 | 64 | 216 | 2.0 | 2.0 | 0.00 | 0.00 | 0.00 | 48 | 1014.5 |
| 20260507163009 | 64 | 245 | 4.0 | 5.0 | 0.00 | 0.00 | 0.00 | 45 | 1014.6 |
| 20260507162503 | 64 | 239 | 3.0 | 3.0 | 0.00 | 0.00 | 0.00 | 45 | 1014.8 |
| 20260507162000 | 64 | 245 | 3.0 | 5.0 | 0.00 | 0.00 | 0.00 | 45 | 1014.7 |
| 20260507161456 | 63 | 209 | 2.0 | 3.0 | 0.00 | 0.00 | 0.00 | 44 | 1014.7 |
| 20260507160954 | 63 | 242 | 6.0 | 7.0 | 0.00 | 0.00 | 0.00 | 44 | 1015.1 |
| 20260507160449 | 63 | 238 | 5.0 | 6.0 | 0.00 | 0.00 | 0.00 | 43 | 1014.8 |
| 20260507155945 | 63 | 220 | 3.0 | 3.0 | 0.00 | 0.00 | 0.00 | 44 | 1014.8 |
| 20260507155441 | 63 | 201 | 2.0 | 3.0 | 0.00 | 0.00 | 0.00 | 46 | 1015.1 |
| 20260507154939 | 62 | 233 | 3.0 | 3.0 | 0.00 | 0.00 | 0.00 | 45 | 1015.0 |
| 20260507154435 | 63 | 257 | 5.0 | 8.0 | 0.00 | 0.00 | 0.00 | 43 | 1015.2 |
| 20260507153933 | 62 | 252 | 3.0 | 3.0 | 0.00 | 0.00 | 0.00 | 43 | 1015.1 |
| 20260507153429 | 61 | 143 | 3.0 | 5.0 | 0.00 | 0.00 | 0.00 | 42 | 1015.1 |
| 20260507152925 | 61 | 214 | 2.0 | 2.0 | 0.00 | 0.00 | 0.00 | 45 | 1015.1 |
| 20260507152422 | 61 | 224 | 5.0 | 7.0 | 0.00 | 0.00 | 0.00 | 43 | 1015.3 |
| 20260507151917 | 60 | 201 | 0.0 | 1.0 | 0.00 | 0.00 | 0.00 | 46 | 1015.4 |
| 20260507151414 | 61 | 244 | 4.0 | 6.0 | 0.00 | 0.00 | 0.00 | 43 | 1015.3 |
| 20260507150911 | 62 | 221 | 2.0 | 5.0 | 0.00 | 0.00 | 0.00 | 42 | 1015.3 |
| 20260507150408 | 61 | 231 | 2.0 | 2.0 | 0.00 | 0.00 | 0.00 | 46 | 1015.5 |
| 20260507145904 | 60 | 238 | 3.0 | 3.0 | 0.00 | 0.00 | 0.00 | 47 | 1015.6 |
| 20260507145400 | 61 | 209 | 1.0 | 2.0 | 0.00 | 0.00 | 0.00 | 44 | 1015.5 |
| 20260507144857 | 60 | 157 | 3.0 | 3.0 | 0.00 | 0.00 | 0.00 | 45 | 1015.7 |
| 20260507144355 | 59 | 223 | 3.0 | 3.0 | 0.00 | 0.00 | 0.00 | 46 | 1015.7 |
| 20260507143851 | 59 | 253 | 2.0 | 3.0 | 0.00 | 0.00 | 0.00 | 48 | 1015.7 |
| 20260507143349 | 60 | 251 | 1.0 | 1.0 | 0.00 | 0.00 | 0.00 | 46 | 1016.1 |
| 20260507142845 | 59 | 214 | 2.0 | 2.0 | 0.00 | 0.00 | 0.00 | 47 | 1015.9 |
| 20260507142341 | 59 | 224 | 3.0 | 3.0 | 0.00 | 0.00 | 0.00 | 48 | 1015.9 |
| 20260507141838 | 57 | 200 | 1.0 | 1.0 | 0.00 | 0.00 | 0.00 | 50 | 1015.9 |
| 20260507141334 | 58 | 224 | 2.0 | 3.0 | 0.00 | 0.00 | 0.00 | 49 | 1016.0 |
| 20260507140831 | 58 | 216 | 1.0 | 2.0 | 0.00 | 0.00 | 0.00 | 49 | 1016.2 |
| 20260507140328 | 57 | 245 | 3.0 | 3.0 | 0.00 | 0.00 | 0.00 | 49 | 1016.3 |
| 20260507135826 | 57 | 221 | 1.0 | 1.0 | 0.00 | 0.00 | 0.00 | 54 | 1016.3 |
| 20260507135322 | 56 | 208 | 0.0 | 1.0 | 0.00 | 0.00 | 0.00 | 54 | 1016.2 |
| 20260507134820 | 56 | 186 | 1.0 | 2.0 | 0.00 | 0.00 | 0.00 | 52 | 1016.3 |
| 20260507134316 | 55 | 231 | 1.0 | 1.0 | 0.00 | 0.00 | 0.00 | 56 | 1016.4 |
| 20260507133811 | 55 | 219 | 1.0 | 2.0 | 0.00 | 0.00 | 0.00 | 60 | 1016.4 |
| 20260507133308 | 53 | 209 | 0.0 | 1.0 | 0.00 | 0.00 | 0.00 | 59 | 1016.3 |
| 20260507132806 | 51 | 239 | 2.0 | 2.0 | 0.00 | 0.00 | 0.00 | 64 | 1016.7 |
| 20260507132306 | 50 | 215 | 1.0 | 2.0 | 0.00 | 0.00 | 0.00 | 66 | 1016.8 |
| 20260507131759 | 49 | 213 | 0.0 | 0.0 | 0.00 | 0.00 | 0.00 | 66 | 1016.7 |
| 20260507131256 | 49 | 225 | 1.0 | 1.0 | 0.00 | 0.00 | 0.00 | 65 | 1017.0 |
| 20260507130752 | 49 | 225 | 1.0 | 1.0 | 0.00 | 0.00 | 0.00 | 67 | 1016.7 |
| 20260507130250 | 48 | 195 | 1.0 | 1.0 | 0.00 | 0.00 | 0.00 | 67 | 1016.7 |
| 20260507125749 | 48 | 220 | 0.0 | 1.0 | 0.00 | 0.00 | 0.00 | 70 | 1016.9 |
| 20260507125246 | 48 | 214 | 0.0 | 0.0 | 0.00 | 0.00 | 0.00 | 70 | 1016.7 |
| 20260507124743 | 47 | 206 | 1.0 | 1.0 | 0.00 | 0.00 | 0.00 | 70 | 1016.8 |
| 20260507124239 | 46 | 214 | 0.0 | 0.0 | 0.00 | 0.00 | 0.00 | 72 | 1016.6 |
| 20260507123738 | 45 | 218 | 1.0 | 1.0 | 0.00 | 0.00 | 0.00 | 73 | 1016.7 |
| 20260507123235 | 45 | 226 | 0.0 | 0.0 | 0.00 | 0.00 | 0.00 | 76 | 1016.6 |
| 20260507122730 | 44 | 226 | 0.0 | 0.0 | 0.00 | 0.00 | 0.00 | 78 | 1016.5 |
| 20260507122227 | 44 | 226 | 0.0 | 0.0 | 0.00 | 0.00 | 0.00 | 81 | 1016.5 |
| 20260507121722 | 42 | 225 | 0.0 | 0.0 | 0.00 | 0.00 | 0.00 | 83 | 1016.5 |
| 20260507121218 | 41 | 226 | 0.0 | 0.0 | 0.00 | 0.00 | 0.00 | 85 | 1016.4 |
| 20260507120715 | 40 | 226 | 0.0 | 0.0 | 0.00 | 0.00 | 0.00 | 89 | 1016.5 |
| 20260507120212 | 40 | 226 | 0.0 | 0.0 | 0.00 | 0.00 | 0.00 | 90 | 1016.6 |
| 20260507115708 | 39 | 226 | 0.0 | 0.0 | 0.00 | 0.00 | 0.00 | 92 | 1016.5 |
| 20260507115204 | 38 | 226 | 0.0 | 0.0 | 0.00 | 0.00 | 0.00 | 93 | 1016.6 |
| 20260507114659 | 38 | 226 | 0.0 | 0.0 | 0.00 | 0.00 | 0.00 | 95 | 1016.3 |
| 20260507114157 | 37 | 226 | 0.0 | 0.0 | 0.00 | 0.00 | 0.00 | 95 | 1016.4 |
| 20260507113654 | 37 | 226 | 0.0 | 0.0 | 0.00 | 0.00 | 0.00 | 97 | 1016.6 |
| 20260507113151 | 37 | 226 | 0.0 | 0.0 | 0.00 | 0.00 | 0.00 | 97 | 1016.3 |
| 20260507112649 | 36 | 226 | 0.0 | 0.0 | 0.00 | 0.00 | 0.00 | 98 | 1016.3 |
| 20260507112145 | 36 | 226 | 0.0 | 0.0 | 0.00 | 0.00 | 0.00 | 99 | 1016.2 |
| 20260507111643 | 36 | 226 | 0.0 | 0.0 | 0.00 | 0.00 | 0.00 | 99 | 1016.1 |
| 20260507111139 | 36 | 226 | 0.0 | 0.0 | 0.00 | 0.00 | 0.00 | 99 | 1016.2 |
| 20260507110635 | 35 | 226 | 0.0 | 0.0 | 0.00 | 0.00 | 0.00 | 99 | 1016.1 |
| 20260507110132 | 35 | 226 | 0.0 | 0.0 | 0.00 | 0.00 | 0.00 | 99 | 1016.3 |
| 20260507105629 | 35 | 226 | 0.0 | 0.0 | 0.00 | 0.00 | 0.00 | 99 | 1016.2 |
| 20260507105125 | 35 | 226 | 0.0 | 0.0 | 0.00 | 0.00 | 0.00 | 99 | 1016.3 |
| 20260507104623 | 36 | 226 | 0.0 | 0.0 | 0.00 | 0.00 | 0.00 | 99 | 1016.0 |
| 20260507104119 | 36 | 226 | 0.0 | 0.0 | 0.00 | 0.00 | 0.00 | 99 | 1016.3 |
| 20260507103615 | 36 | 226 | 0.0 | 0.0 | 0.00 | 0.00 | 0.00 | 99 | 1016.4 |
| 20260507103112 | 36 | 226 | 0.0 | 0.0 | 0.00 | 0.00 | 0.00 | 99 | 1016.4 |
| 20260507102608 | 36 | 226 | 0.0 | 0.0 | 0.00 | 0.00 | 0.00 | 99 | 1016.4 |
| 20260507102105 | 36 | 226 | 0.0 | 0.0 | 0.00 | 0.00 | 0.00 | 99 | 1016.4 |
| 20260507101601 | 36 | 226 | 0.0 | 0.0 | 0.00 | 0.00 | 0.00 | 99 | 1016.4 |